UTMN (RS23S SXC3-216)

Last updated on Wed Sep 13 2023 00:03:03 GMT+0000 (Coordinated Universal Time)

1 53376U 22096G 23255.53647611 .00037855 00000+0 89877-3 0 9992 2 53376 97.4027 162.4426 0003217 106.9666 253.1934 15.41596789 61107

Satellite not in orbit

UTMN (RS23S SXC3-216)